AK4NG Weather Reports


time (UTC)temp
C
wind
direction
speed
KPH
gust
KPH
rain 1hr
cm
rain 24hr
cm
rain mn
cm
humidity
%
barometer
mb
20260504185912 26 242 4.8 4.8 0.00 0.00 0.00 34 1017.0
20260504185409 25 79 1.6 3.2 0.00 0.00 0.00 37 1016.9
20260504184905 25 102 6.4 9.7 0.00 0.00 0.00 34 1016.9
20260504184401 25 16 1.6 1.6 0.00 0.00 0.00 35 1016.9
20260504183857 25 38 1.6 1.6 0.00 0.00 0.00 33 1017.2
20260504183354 25 307 6.4 6.4 0.00 0.00 0.00 30 1017.4
20260504182852 25 325 8.0 11.3 0.00 0.00 0.00 34 1017.1
20260504182349 25 170 3.2 3.2 0.00 0.00 0.00 34 1017.1
20260504181845 25 55 6.4 6.4 0.00 0.00 0.00 31 1017.0
20260504181343 25 147 1.6 1.6 0.00 0.00 0.00 32 1017.3
20260504180842 25 135 3.2 4.8 0.00 0.00 0.00 34 1017.3
20260504180340 25 284 0.0 1.6 0.00 0.00 0.00 31 1017.5
20260504175838 25 150 1.6 1.6 0.00 0.00 0.00 34 1017.3
20260504175334 25 246 3.2 3.2 0.00 0.00 0.00 33 1017.3
20260504174833 24 116 4.8 6.4 0.00 0.00 0.00 34 1017.5
20260504174330 25 124 4.8 6.4 0.00 0.00 0.00 33 1017.6
20260504173827 25 136 6.4 9.7 0.00 0.00 0.00 33 1017.7
20260504173323 25 200 3.2 3.2 0.00 0.00 0.00 33 1017.7
20260504172820 25 99 3.2 3.2 0.00 0.00 0.00 33 1017.9
20260504172317 25 267 4.8 6.4 0.00 0.00 0.00 35 1018.1
20260504171813 25 157 6.4 9.7 0.00 0.00 0.00 35 1017.9
20260504171310 25 28 4.8 4.8 0.00 0.00 0.00 35 1018.1
20260504170807 24 14 6.4 9.7 0.00 0.00 0.00 36 1018.1
20260504170304 25 170 3.2 4.8 0.00 0.00 0.00 36 1017.9
20260504160222 22 292 3.2 4.8 0.00 0.00 0.00 39 1018.7
20260504150647 22 137 4.8 4.8 0.00 0.00 0.00 43 1019.0
20260504150144 22 126 8.0 9.7 0.00 0.00 0.00 46 1018.9
20260504141113 20 222 3.2 3.2 0.00 0.00 0.00 51 1019.0
20260504140610 20 264 3.2 3.2 0.00 0.00 0.00 52 1019.4
20260504140105 20 96 1.6 3.2 0.00 0.00 0.00 53 1019.3
20260504130534 17 149 3.2 3.2 0.00 0.00 0.00 57 1019.0
20260504110421 9 107 1.6 1.6 0.00 0.00 0.00 84 1018.3
20260504100338 10 86 0.0 1.6 0.00 0.00 0.00 86 1018.3
20260504081731 8 270 0.0 0.0 0.00 0.00 0.00 90 1018.5
20260504081228 8 270 0.0 0.0 0.00 0.00 0.00 90 1018.4
20260504080724 8 270 0.0 0.0 0.00 0.00 0.00 89 1018.6
20260504080221 8 270 0.0 0.0 0.00 0.00 0.00 89 1018.7
20260504070148 10 270 0.0 0.0 0.00 0.00 0.00 83 1018.9
20260504060109 10 271 0.0 0.0 0.00 0.00 0.00 84 1019.4
20260504050537 11 270 0.0 0.0 0.00 0.00 0.00 77 1019.5
20260504045531 11 270 0.0 0.0 0.00 0.00 0.00 78 1020.0
20260504045026 11 270 0.0 0.0 0.00 0.00 0.00 80 1020.0
20260504044524 11 270 0.0 0.0 0.00 0.00 0.00 81 1020.0
20260504044021 11 270 0.0 0.0 0.00 0.00 0.00 79 1019.9
20260504043518 11 271 0.0 0.0 0.00 0.00 0.00 82 1019.8
20260504043015 11 271 0.0 0.0 0.00 0.00 0.00 80 1020.0
20260504042512 11 271 0.0 0.0 0.00 0.00 0.00 79 1020.1
20260504042009 12 271 0.0 0.0 0.00 0.00 0.00 79 1020.1
20260504041505 12 271 0.0 0.0 0.00 0.00 0.00 78 1020.1
20260504041001 12 271 0.0 0.0 0.00 0.00 0.00 80 1020.3
20260504040459 12 271 0.0 0.0 0.00 0.00 0.00 79 1020.0
20260504035954 12 271 0.0 0.0 0.00 0.00 0.00 79 1020.0
20260504035452 12 271 0.0 0.0 0.00 0.00 0.00 79 1020.0
20260504034948 12 271 0.0 0.0 0.00 0.00 0.00 79 1019.9
20260504034446 12 270 0.0 0.0 0.00 0.00 0.00 76 1019.7
20260504033943 12 270 0.0 0.0 0.00 0.00 0.00 76 1019.9
20260504033441 12 271 0.0 0.0 0.00 0.00 0.00 77 1020.0
20260504032938 12 271 0.0 0.0 0.00 0.00 0.00 78 1019.9
20260504032434 12 271 0.0 0.0 0.00 0.00 0.00 78 1019.9
20260504031931 12 271 0.0 0.0 0.00 0.00 0.00 78 1019.9
20260504031428 12 271 0.0 0.0 0.00 0.00 0.00 77 1020.0
20260504030925 12 271 0.0 0.0 0.00 0.00 0.00 78 1019.8
20260504030422 12 271 0.0 0.0 0.00 0.00 0.00 77 1019.5
20260504025918 12 271 0.0 0.0 0.00 0.00 0.00 77 1019.7
20260504025415 12 271 0.0 0.0 0.00 0.00 0.00 76 1019.7
20260504024912 12 271 0.0 0.0 0.00 0.00 0.00 72 1019.6
20260504024409 12 271 0.0 0.0 0.00 0.00 0.00 68 1019.7
20260504023906 12 271 0.0 0.0 0.00 0.00 0.00 71 1019.8
20260504023402 12 271 0.0 0.0 0.00 0.00 0.00 72 1019.8
20260504022857 12 270 0.0 0.0 0.00 0.00 0.00 72 1019.7
20260504022355 12 270 0.0 0.0 0.00 0.00 0.00 77 1019.6
20260504021851 12 270 0.0 0.0 0.00 0.00 0.00 73 1019.7
20260504021348 12 270 0.0 0.0 0.00 0.00 0.00 73 1019.4
20260504020846 13 270 0.0 0.0 0.00 0.00 0.00 68 1019.4
20260504020342 13 270 0.0 0.0 0.00 0.00 0.00 71 1019.4
20260504015838 13 270 0.0 0.0 0.00 0.00 0.00 75 1019.3
20260504015335 13 270 0.0 0.0 0.00 0.00 0.00 75 1019.5
20260504014831 13 270 0.0 0.0 0.00 0.00 0.00 73 1019.4
20260504014327 13 270 0.0 0.0 0.00 0.00 0.00 73 1019.1
20260504013825 13 270 0.0 0.0 0.00 0.00 0.00 73 1019.2
20260504013322 14 270 0.0 0.0 0.00 0.00 0.00 71 1019.3
20260504012819 14 270 0.0 0.0 0.00 0.00 0.00 71 1019.1
20260504012317 14 270 0.0 0.0 0.00 0.00 0.00 66 1019.0
20260504011814 14 270 0.0 0.0 0.00 0.00 0.00 67 1018.9
20260504011310 14 270 0.0 0.0 0.00 0.00 0.00 68 1019.1
20260504010806 15 270 0.0 0.0 0.00 0.00 0.00 68 1019.0
20260504010302 15 270 0.0 0.0 0.00 0.00 0.00 66 1018.9
20260504005759 15 270 0.0 0.0 0.00 0.00 0.00 68 1018.9
20260504005256 15 270 0.0 0.0 0.00 0.00 0.00 69 1018.9
20260504004753 15 270 0.0 0.0 0.00 0.00 0.00 65 1018.7
20260504004251 15 270 0.0 0.0 0.00 0.00 0.00 64 1018.9
20260504003747 16 270 0.0 0.0 0.00 0.00 0.00 65 1018.6
20260504003244 16 270 0.0 0.0 0.00 0.00 0.00 61 1018.4
20260504002740 16 270 0.0 0.0 0.00 0.00 0.00 60 1018.6
20260504002237 16 270 0.0 0.0 0.00 0.00 0.00 56 1018.3
20260504001735 17 270 0.0 0.0 0.00 0.00 0.00 55 1018.3
20260504001232 17 270 0.0 0.0 0.00 0.00 0.00 53 1018.1
20260504000728 18 270 0.0 0.0 0.00 0.00 0.00 51 1018.4
20260504000226 19 270 0.0 0.0 0.00 0.00 0.00 47 1018.2
20260503235724 20 271 0.0 0.0 0.00 0.00 0.00 43 1018.3
20260503235221 20 271 0.0 0.0 0.00 0.00 0.00 43 1018.3
20260503234719 21 271 0.0 0.0 0.00 0.00 0.00 42 1018.6
20260503234216 21 271 0.0 0.0 0.00 0.00 0.00 38 1018.4
20260503233713 21 270 1.6 1.6 0.00 0.00 0.00 37 1018.1
20260503233209 21 342 0.0 0.0 0.00 0.00 0.00 38 1018.5
20260503232706 21 273 1.6 1.6 0.00 0.00 0.00 35 1018.5
20260503232203 21 287 3.2 4.8 0.00 0.00 0.00 35 1018.4
20260503231701 21 296 6.4 6.4 0.00 0.00 0.00 34 1018.3
20260503231157 22 330 6.4 6.4 0.00 0.00 0.00 32 1018.5
20260503230654 22 246 4.8 4.8 0.00 0.00 0.00 32 1018.6
20260503230151 22 255 4.8 4.8 0.00 0.00 0.00 33 1018.5
20260503225648 22 290 6.4 6.4 0.00 0.00 0.00 32 1018.6
20260503225148 22 12 4.8 4.8 0.00 0.00 0.00 35 1018.5
20260503224646 22 324 0.0 0.0 0.00 0.00 0.00 34 1018.4
20260503224144 23 277 6.4 6.4 0.00 0.00 0.00 32 1018.5
20260503223641 23 260 4.8 4.8 0.00 0.00 0.00 31 1018.4
20260503223138 22 304 1.6 1.6 0.00 0.00 0.00 30 1018.3
20260503222635 22 7 4.8 6.4 0.00 0.00 0.00 35 1018.5
20260503222132 22 26 4.8 4.8 0.00 0.00 0.00 32 1018.6
20260503221631 22 319 3.2 3.2 0.00 0.00 0.00 34 1018.6
20260503221128 22 288 3.2 6.4 0.00 0.00 0.00 34 1018.7
20260503220624 23 289 6.4 6.4 0.00 0.00 0.00 29 1018.6
20260503220121 22 38 6.4 6.4 0.00 0.00 0.00 31 1018.5
20260503215618 23 256 3.2 4.8 0.00 0.00 0.00 32 1018.8
20260503215115 23 252 1.6 3.2 0.00 0.00 0.00 31 1018.5
20260503214614 22 46 3.2 4.8 0.00 0.00 0.00 34 1018.7
20260503214109 23 198 9.7 12.9 0.00 0.00 0.00 30 1018.7
20260503213608 22 344 3.2 3.2 0.00 0.00 0.00 33 1018.7
20260503213104 22 258 0.0 1.6 0.00 0.00 0.00 32 1018.8
20260503212601 22 309 9.7 12.9 0.00 0.00 0.00 29 1018.8
20260503212059 23 280 11.3 12.9 0.00 0.00 0.00 30 1018.8
20260503211556 23 285 4.8 6.4 0.00 0.00 0.00 30 1018.7
20260503211051 23 284 3.2 3.2 0.00 0.00 0.00 31 1018.9
20260503210548 23 281 6.4 6.4 0.00 0.00 0.00 31 1019.0
20260503210044 22 208 3.2 3.2 0.00 0.00 0.00 31 1018.9
20260503205541 22 237 6.4 6.4 0.00 0.00 0.00 31 1018.9
20260503205037 23 232 8.0 11.3 0.00 0.00 0.00 30 1019.1
20260503204534 23 25 4.8 4.8 0.00 0.00 0.00 32 1019.0
20260503204031 22 292 1.6 1.6 0.00 0.00 0.00 30 1019.2
20260503203529 23 243 8.0 9.7 0.00 0.00 0.00 29 1019.5
20260503203026 22 40 3.2 3.2 0.00 0.00 0.00 31 1019.6
20260503202523 22 272 9.7 11.3 0.00 0.00 0.00 30 1019.7
20260503202021 23 300 9.7 12.9 0.00 0.00 0.00 31 1019.8
20260503201519 23 252 9.7 12.9 0.00 0.00 0.00 30 1019.7
20260503201016 23 334 4.8 4.8 0.00 0.00 0.00 31 1019.8
20260503200512 23 267 3.2 4.8 0.00 0.00 0.00 32 1019.7
20260503200009 22 62 1.6 1.6 0.00 0.00 0.00 31 1020.0
20260503195506 23 52 3.2 4.8 0.00 0.00 0.00 33 1020.1
20260503195003 23 251 6.4 6.4 0.00 0.00 0.00 32 1020.2
20260503194500 22 320 1.6 1.6 0.00 0.00 0.00 36 1020.2
20260503193955 22 301 0.0 1.6 0.00 0.00 0.00 33 1020.3
20260503193451 22 277 3.2 3.2 0.00 0.00 0.00 34 1020.4
20260503192947 22 278 6.4 11.3 0.00 0.00 0.00 33 1020.3
20260503192443 22 274 9.7 11.3 0.00 0.00 0.00 35 1020.4
20260503191939 22 297 4.8 6.4 0.00 0.00 0.00 32 1020.5
20260503191437 22 246 12.9 16.1 0.00 0.00 0.00 31 1020.5
20260503190932 22 305 3.2 4.8 0.00 0.00 0.00 36 1020.7
20260503190430 22 280 6.4 9.7 0.00 0.00 0.00 34 1020.8